Regional Weather Roundup
Issued by NWS Goodland, KS

Home | Current Version | Previous Version | Graphics & Text | Print | Product List | Glossary On
Versions: 1 2 3 4 5 6 7 8 9 10 11 12 13 14 15 16 17 18 19 20 21 22 23 24 25 26 27 28 29 30 31 32 33 34 35 36 37 38 39 40 41 42 43 44 45 46 47 48 49 50
521
ASUS43 KGLD 130908
RWRGLD

GOODLAND FORECAST AREA HOURLY WEATHER ROUNDUP
NATIONAL WEATHER SERVICE GOODLAND KS
200 AM MST SAT FEB 13 2016

...OFFICIAL OBSERVATIONS...

CITY           SKY/WX    TMP DP  RH WIND       PRES   REMARKS
GOODLAND KS    CLOUDY    26  24  92 S18       30.31F WCI  13
HILL CITY KS   CLOUDY    25  20  81 E10       30.45F WCI  15
IMPERIAL NEB   CLOUDY    28  27  96 S15       30.31F WCI  16
MCCOOK NEB     CLOUDY    24  23  96 SE13      30.40F FOG     WCI  12
AKRON CO       CLOUDY    30  30 100 S18       30.19F WCI  18
BURLINGTON CO  CLOUDY    26  24  92 S21       30.26F FOG     WCI  12
LIMON CO       CLOUDY    27  27 100 S12       30.21F FOG     WCI  17
$$

...UNOFFICIAL OBSERVATIONS...

CITY           SKY/WX    TMP DP  RH WIND       PRES   REMARKS
COLBY KS       CLOUDY    28  28 100 SE13      30.35F WCI  18
GOVE KS          N/A     25  32 100 MISG        N/A
LENORA KS        N/A     23  32 100 MISG        N/A
NORTON KS      CLOUDY    23  16  74 E8        30.43S
SHARON SPRINGS   N/A     26  24  94 SE15        N/A  WCI  14
KIT CARSON CO    N/A     26  24  90 MISG        N/A
YUMA CO          N/A     30  29  96 S9          N/A
$$




USA.gov is the U.S. government's official web portal to all federal, state and local government web resources and services.